This is the latest recevied weather packets stored in our database for station/object E25HA-1. If no packets are shown the sender has not sent any weather packets the latest 10 day(s).
| Time | Temp. | Humidity | Pressure | Rain* | Wind** | Luminosity | Snow |
|---|---|---|---|---|---|---|---|
| 1777692806 | 36.11° C | 99% | 990 hPa | - | - | 5 W/m² | - |
| 1777692484 | 36.11° C | 99% | 990 hPa | - | - | 5 W/m² | - |
| 1777692162 | 36.11° C | 99% | 990 hPa | - | - | 12 W/m² | - |
| 1777691839 | 35.56° C | 99% | 990 hPa | - | - | 10 W/m² | - |
| 1777691517 | 35.56° C | 99% | 991 hPa | - | - | 10 W/m² | - |
| 1777691195 | 35° C | 99% | 991 hPa | - | - | 7 W/m² | - |
| 1777690872 | 35° C | 99% | 991 hPa | - | - | 5 W/m² | - |
| 1777690550 | 35° C | 99% | 991 hPa | - | - | 5 W/m² | - |
| 1777690227 | 35° C | 99% | 991 hPa | - | - | 4 W/m² | - |
| 1777689905 | 35° C | 99% | 991 hPa | - | - | 5 W/m² | - |
| 1777689583 | 34.44° C | 99% | 991 hPa | - | - | 5 W/m² | - |
| 1777689260 | 34.44° C | 99% | 991 hPa | - | - | 8 W/m² | - |
| 1777688938 | 33.89° C | 99% | 991 hPa | - | - | 6 W/m² | - |
| 1777688615 | 33.89° C | 99% | 991 hPa | - | - | 6 W/m² | - |
| 1777688293 | 33.89° C | 99% | 991 hPa | - | - | 6 W/m² | - |
| 1777687971 | 33.33° C | 99% | 991 hPa | - | - | 5 W/m² | - |
| 1777687648 | 33.33° C | 99% | 991 hPa | - | - | 5 W/m² | - |
| 1777687326 | 32.78° C | 99% | 991 hPa | - | - | 5 W/m² | - |
| 1777687004 | 32.78° C | 99% | 991 hPa | - | - | 5 W/m² | - |
| 1777686681 | 32.78° C | 99% | 991 hPa | - | - | 5 W/m² | - |
| 1777686029 | 31.67° C | 99% | 991 hPa | - | - | 4 W/m² | - |
| 1777685707 | 31.67° C | 99% | 991 hPa | - | - | 3 W/m² | - |
| 1777685385 | 31.11° C | 99% | 991 hPa | - | - | 3 W/m² | - |
| 1777685062 | 30.56° C | 99% | 991 hPa | - | - | 3 W/m² | - |
| 1777684740 | 30° C | 99% | 991 hPa | - | - | 3 W/m² | - |
* Rain since midnight (hover to see other rain measurements)
** Current wind speed in m/s (hover to see current wind gust speed)